Showing default

XIWANG-1 (HOPE-1), 36122

Orbit data source: Space-Track

XIWANG-1 (HOPE-1), 36122 is a payload satellite owned by CAMSAT (CN) in SSO that was launched on Tue, 15 Dec 2009 UTC via a CHANG ZHENG 4C launch vehicle from the Taiyaun Space Center, China (TSC). Payload-class satellites include a variety of spacecraft equipped with specific instruments for various scientific and technological missions. These include communications satellites like Starlink; space stations such as the ISS; scientific satellites like the Hubble; Earth observation satellites from companies like Planet Labs, Umbra, and HawkEye 360; GPS; miniature CubeSats for education and research; and military/defense satellites.

Loading next visibility...
Identifier
36122, 2009-072B
Orbit
SSO
Last TLE update
8 hours ago
Origin
Manufacturer
CAMSAT
Mission
Partially operational Amateur Communications
Bus & Motor
XW1, Unknown motor
Mass
50 kg wet, 50 kg dry
Launch date (UTC)
2009-12-15 (15 years ago)
Launch vehicle
CHANG ZHENG 4C
Launch site
Taiyaun Space Center, China (TSC)
Object type
Payload
Rocket body
Debris
Shape & HBR
Box, 0.7 m
Radar Cross Section
0.595 m², Medium (>0.1 m² and < 1m²)

Expand to show TLE details & history

TLE from 8 hours ago
0 XIWANG-1 (HOPE-1)
1 36122U 09072B   25127.78621731 -.00000048  00000-0 -98839-5 0  9990
2 36122 100.3467  84.2581 0008191  80.9216 279.2823 13.16423941739769
Epoch: 2025-05-07T18:52Z
Definitive object data (Epoch: 2025-05-07T18:52:09.175Z)
Latitude
-0.0001°
Longitude
-64.64618°
Altitude
1,200.13 km
Speed
7.254 km/s
True Right ascension
05h 37m 01s
True Declination
0° 00' 00"
Sunlit
Object was in daylight at TLE epoch
Visualization TLE readout
Latitude
27.82583°
Longitude
121.18427°
Altitude
1,199.689 km
Speed
7.257 km/s
Apparent Right ascension
20h 03m 03s
Apparent Declination
-3° 24' 10"
Sunlit
Object is in daylight
Visualization observer readout
Local Sidereal Time
11:00:15
Azimuth
59.364° ENE
Elevation
-35.877°
Doppler factor
1
Orbital elements
Apogee altitude
1,201.994 km
Perigee altitude
1,189.586 km
Semi-major axis
7,573.927 km
Eccentricity
0.0008191
Inclination
100.3467°
RAAN
84.2581°
Arg. of periapsis
80.9216°
True anomaly
279.18965°
Mean anomaly
279.2823°
Eccentric anomaly
279.23598°
Mean motion
3.29277 °/min
BSTAR
-0.0000098839
Orbital period
109.33 mins
Loading maneuver chart data...
Loading SW <> Apogee altitude chart data...
Loading historical data...
Loading historical data...
Loading historical data...
Loading historical data...
Loading historical data...
Loading historical data...
Loading historical data...

XIWANG-1 (HOPE-1) Visibility forecast

Observer location: undefined°, undefined°

Span
Click to sort rows by Start time (UTC) header in descending order
Start Az.
Max El. time (UTC)
Max El. Az.
Max El.
End time (UTC)
End Az.
7 mins2025-05-08 08:17:56.736Z59.481° ENE2025-05-08 08:20:56.736Z85.48° E14.487°2025-05-08 08:24:56.736Z120.864° SE
13 mins2025-05-08 10:03:56.736Z15.353° NNE2025-05-08 10:09:56.736Z254.904° W44.994°2025-05-08 10:16:56.736Z198.167° SSW
7 mins2025-05-08 11:53:56.736Z331.032° NNW2025-05-08 11:56:56.736Z301.999° NW16.826°2025-05-08 12:00:56.736Z267.155° W
12 mins2025-05-08 20:31:56.736Z146.102° SSE2025-05-08 20:36:56.736Z74.678° E42.282°2025-05-08 20:43:56.736Z350.468° N
9 mins2025-05-08 22:20:56.736Z224.504° SW2025-05-08 22:24:56.736Z263.652° W20.886°2025-05-08 22:29:56.736Z312.203° NW
|